Weather History for KPIR - May, 2014

Change the Weather History Date:

Thursday, May 15, 2014

  Actual Average Record
Temperature  
Mean Temperature 42 °F 58 °F  
Max Temperature 58 °F 70 °F 96 °F (1936)
Min Temperature 25 °F 46 °F 25 °F (2014)
Degree Days  
Heating Degree Days 23 8  
Month to date heating degree days 243 151  
Since 1 July heating degree days 7910 7141  
Cooling Degree Days 0 1  
Month to date cooling degree days 0 13  
Year to date cooling degree days 0 17  
Moisture  
Dew Point 26 °F    
Average Humidity 59    
Maximum Humidity 92    
Minimum Humidity 25    
Precipitation  
Precipitation 0.00 in 0.11 in 0.70 in (1908)
Month to date precipitation 1.60 1.40  
Year to date precipitation 5.13 5.45  
Sea Level Pressure  
Sea Level Pressure 30.24 in    
Wind  
Wind Speed 6 mph (NE)    
Max Wind Speed 20 mph    
Max Gust Speed 25 mph    
Visibility 10 miles    
Events      
T = Trace of Precipitation, MM = Missing Value Source: NWS Daily Summary

Daily Weather History Graph

Daily Weather History Graph

Search for Another Location

Airport or City:

Trip Planner

Search our weather history database for the weather conditions in past years. The results will help you decide how hot, cold, wet, or windy it might be!

Date:

Astronomy

May. 15, 2014 Rise Set
Actual Time 6:13 AM CDT 9:01 PM CDT
Civil Twilight 5:40 AM CDT 9:35 PM CDT
Nautical Twilight 4:57 AM CDT 10:18 PM CDT
Astronomical Twilight 4:08 AM CDT 11:08 PM CDT
Moon 10:11 PM CDT (5/15) 7:02 AM CDT (5/15)
Length of Visible Light 15h 55m
Length of Day
14h 47m
Full, 99% of the Moon is Illuminated
May 15
Full
May 21
Last Quarter
May 28
New
Jun 5
First Quarter
Jun 12
Full

Hourly Weather History & Observations

Time (CDT) Temp. Windchill Dew Point Humidity Pressure Visibility Wind Dir Wind Speed Gust Speed Precip Events Conditions
12:53 AM 34.0 °F 28.8 °F 26.1 °F 73% 30.30 in 10.0 mi ENE 5.8 mph - N/A   Clear
1:53 AM 32.0 °F 27.5 °F 26.1 °F 79% 30.30 in 10.0 mi ENE 4.6 mph - N/A   Clear
2:53 AM 28.9 °F 21.1 °F 24.1 °F 82% 30.30 in 10.0 mi NE 8.1 mph - N/A   Clear
3:53 AM 28.0 °F 20.8 °F 24.1 °F 85% 30.29 in 10.0 mi NE 6.9 mph - N/A   Clear
4:53 AM 28.0 °F 21.7 °F 24.1 °F 85% 30.29 in 10.0 mi NE 5.8 mph - N/A   Clear
5:53 AM 27.0 °F 21.6 °F 24.1 °F 89% 30.29 in 10.0 mi NE 4.6 mph - N/A   Clear
6:53 AM 28.0 °F - 24.1 °F 85% 30.29 in 10.0 mi Calm Calm - N/A   Clear
7:53 AM 32.0 °F 27.5 °F 28.0 °F 85% 30.30 in 10.0 mi ENE 4.6 mph - N/A   Clear
8:53 AM 39.0 °F 35.7 °F 30.9 °F 73% 30.30 in 10.0 mi East 4.6 mph - N/A   Clear
9:53 AM 43.0 °F 38.8 °F 30.0 °F 60% 30.30 in 10.0 mi East 6.9 mph - N/A   Clear
10:53 AM 46.9 °F - 30.0 °F 52% 30.29 in 10.0 mi ENE 4.6 mph - N/A   Clear
11:53 AM 50.0 °F - 27.0 °F 41% 30.28 in 10.0 mi NNE 10.4 mph - N/A   Clear
12:53 PM 53.1 °F - 26.1 °F 35% 30.26 in 10.0 mi North 6.9 mph 17.3 mph N/A   Clear
2:53 PM 57.0 °F - 25.0 °F 29% 30.23 in 10.0 mi NNW 15.0 mph 19.6 mph N/A   Clear
3:53 PM 57.0 °F - 23.0 °F 27% 30.21 in 10.0 mi NNW 12.7 mph - N/A   Clear
4:53 PM 57.9 °F - 23.0 °F 26% 30.20 in 10.0 mi NW 16.1 mph 21.9 mph N/A   Clear
5:53 PM 57.0 °F - 23.0 °F 27% 30.18 in 10.0 mi Variable 6.9 mph - N/A   Clear
6:53 PM 57.0 °F - 25.0 °F 29% 30.16 in 10.0 mi NNW 4.6 mph - N/A   Clear
7:53 PM 54.0 °F - 26.1 °F 34% 30.15 in 10.0 mi Calm Calm - N/A   Clear
8:53 PM 48.9 °F - 30.0 °F 48% 30.14 in 10.0 mi East 4.6 mph - N/A   Clear
9:53 PM 45.0 °F 42.6 °F 28.0 °F 52% 30.13 in 10.0 mi East 4.6 mph - N/A   Clear
10:53 PM 41.0 °F 35.8 °F 28.0 °F 60% 30.13 in 10.0 mi ESE 8.1 mph - N/A   Clear
11:53 PM 39.0 °F 34.0 °F 30.0 °F 70% 30.12 in 10.0 mi SE 6.9 mph - N/A   Clear